SIA424 WSSS-VABB

Flight info

Callsign SIA424
Flight time N/A
Altitude 38000
Route AROSO3A AROSO Y513 KALIL Y504 GUNIP N571 VATMO/N0485F400 N571 AGELA MOLGO2A
Aircraft A388/J-SADE2E3FGHIJ3J4J5M1RWXY/LB1D1

Departure

Time 2026-05-01 13:40
Airport Singapore Changi Airport (WSSS)

Arrival

Time N/A
Airport Chhatrapati Shivaji Maharaj International Airport (VABB)
Time Latitude Longitude Altitude Speed Heading
2026-05-01 12:59 1.35356 103.98434 30 ft 0 kts 111°
2026-05-01 13:30 1.35362 103.98418 29 ft 3 kts 111°
2026-05-01 13:31 1.35377 103.98383 28 ft 3 kts 124°
2026-05-01 13:31 1.35406 103.98373 26 ft 0 kts 195°
2026-05-01 13:33 1.35405 103.98373 26 ft 0 kts 195°
2026-05-01 13:35 1.35403 103.98372 26 ft 0 kts 201°
2026-05-01 13:35 1.35398 103.98370 27 ft 2 kts 220°
2026-05-01 13:35 1.35291 103.98302 30 ft 14 kts 202°
2026-05-01 13:36 1.35191 103.98263 30 ft 17 kts 205°
2026-05-01 13:36 1.35133 103.98210 30 ft 1 kts 234°
2026-05-01 13:36 1.35038 103.98098 31 ft 17 kts 207°
2026-05-01 13:37 1.34943 103.98058 31 ft 4 kts 202°
2026-05-01 13:37 1.34894 103.98039 30 ft 11 kts 202°
2026-05-01 13:37 1.34826 103.97983 30 ft 10 kts 264°
2026-05-01 13:37 1.34846 103.97909 31 ft 3 kts 291°
2026-05-01 13:38 1.34851 103.97895 32 ft 3 kts 291°
2026-05-01 13:38 1.34862 103.97866 33 ft 7 kts 291°
2026-05-01 13:38 1.34902 103.97781 36 ft 15 kts 324°
2026-05-01 13:39 1.35033 103.97807 35 ft 29 kts 22°
2026-05-01 13:39 1.35397 103.97960 36 ft 93 kts 23°
2026-05-01 13:39 1.36194 103.98293 33 ft 150 kts 24°
2026-05-01 13:39 1.37225 103.98724 315 ft 163 kts 20°
2026-05-01 13:40 1.38279 103.99155 802 ft 165 kts 24°
2026-05-01 13:40 1.39345 103.99621 1259 ft 169 kts 24°
2026-05-01 13:40 1.40430 104.00088 1689 ft 174 kts 24°
2026-05-01 13:40 1.41608 104.00589 1903 ft 195 kts 24°
2026-05-01 13:41 1.42925 104.01149 2293 ft 216 kts 24°
2026-05-01 13:41 1.44383 104.01766 2689 ft 239 kts 24°
2026-05-01 13:41 1.45982 104.02443 3112 ft 259 kts 24°
2026-05-01 13:41 1.47683 104.03162 3699 ft 269 kts 24°
2026-05-01 13:42 1.49477 104.03714 4475 ft 273 kts
2026-05-01 13:42 1.51361 104.03455 5229 ft 278 kts 339°
2026-05-01 13:42 1.53119 104.02607 5949 ft 283 kts 333°
2026-05-01 13:42 1.54873 104.01680 6669 ft 287 kts 333°
2026-05-01 13:43 1.56636 104.00753 7365 ft 290 kts 333°
2026-05-01 13:43 1.58445 103.99819 8056 ft 293 kts 334°
2026-05-01 13:43 1.60270 103.98892 8749 ft 297 kts 334°
2026-05-01 13:43 1.62123 103.97958 9444 ft 300 kts 334°
2026-05-01 13:44 1.64005 103.97015 10113 ft 303 kts 334°
2026-05-01 13:44 1.65935 103.96048 10430 ft 320 kts 334°
2026-05-01 13:44 1.67960 103.95035 10609 ft 339 kts 334°
2026-05-01 13:44 1.70119 103.93954 10841 ft 353 kts 334°
2026-05-01 13:45 1.72331 103.92844 11415 ft 357 kts 334°
2026-05-01 13:45 1.74510 103.91634 12012 ft 361 kts 327°
2026-05-01 13:45 1.76451 103.90014 12605 ft 366 kts 315°
2026-05-01 13:45 1.78075 103.88044 13191 ft 370 kts 308°
2026-05-01 13:46 1.79637 103.85978 13755 ft 374 kts 309°
2026-05-01 13:46 1.81231 103.83909 14282 ft 377 kts 309°
2026-05-01 13:46 1.82841 103.81831 14812 ft 380 kts 309°
2026-05-01 13:46 1.84469 103.79730 15330 ft 383 kts 309°
2026-05-01 13:47 1.86106 103.77616 15851 ft 385 kts 309°
2026-05-01 13:47 1.87754 103.75484 16365 ft 389 kts 309°
2026-05-01 13:47 1.89401 103.73352 16867 ft 392 kts 309°
2026-05-01 13:47 1.91076 103.71182 17359 ft 396 kts 309°
2026-05-01 13:48 1.92763 103.68990 17860 ft 399 kts 309°
2026-05-01 13:48 1.94462 103.66780 18326 ft 402 kts 309°
2026-05-01 13:48 1.96173 103.64555 18751 ft 405 kts 309°
2026-05-01 13:48 1.97874 103.62344 19153 ft 407 kts 309°
2026-05-01 13:49 1.99619 103.60075 19567 ft 410 kts 309°
2026-05-01 13:49 2.01369 103.57801 19966 ft 413 kts 309°
2026-05-01 13:49 2.03124 103.55519 20360 ft 416 kts 309°
2026-05-01 13:49 2.04894 103.53217 20756 ft 418 kts 309°
2026-05-01 13:50 2.06670 103.50909 21141 ft 421 kts 309°
2026-05-01 13:50 2.08465 103.48575 21530 ft 424 kts 309°
2026-05-01 13:50 2.10269 103.46231 21897 ft 427 kts 309°
2026-05-01 13:50 2.12083 103.43872 22272 ft 429 kts 308°
2026-05-01 13:51 2.13757 103.41391 22627 ft 433 kts 300°
2026-05-01 13:51 2.15065 103.38708 22987 ft 436 kts 292°
2026-05-01 13:51 2.16022 103.35821 23350 ft 439 kts 286°
2026-05-01 13:51 2.16859 103.32870 23666 ft 442 kts 287°
2026-05-01 13:52 2.17721 103.29919 24007 ft 443 kts 287°
2026-05-01 13:52 2.18592 103.26960 24338 ft 444 kts 287°
2026-05-01 13:52 2.19468 103.23987 24662 ft 446 kts 287°
2026-05-01 13:52 2.20342 103.21009 24982 ft 448 kts 287°
2026-05-01 13:53 2.21222 103.18006 25299 ft 449 kts 287°
2026-05-01 13:53 2.22988 103.11979 25927 ft 453 kts 287°
2026-05-01 13:53 2.23863 103.08990 26264 ft 454 kts 287°
2026-05-01 13:54 2.24752 103.05949 26596 ft 456 kts 287°
2026-05-01 13:54 2.25645 103.02901 26919 ft 458 kts 287°
2026-05-01 13:54 2.26543 102.99833 27263 ft 460 kts 287°
2026-05-01 13:54 2.27445 102.96750 27612 ft 462 kts 287°
2026-05-01 13:55 2.28349 102.93659 27969 ft 464 kts 287°
2026-05-01 13:55 2.29261 102.90541 28356 ft 466 kts 287°
2026-05-01 13:55 2.30175 102.87419 28720 ft 469 kts 287°
2026-05-01 13:55 2.31082 102.84323 29105 ft 471 kts 287°
2026-05-01 13:56 2.32007 102.81175 29497 ft 473 kts 287°
2026-05-01 13:56 2.32939 102.78008 29905 ft 476 kts 287°
2026-05-01 13:56 2.33872 102.74823 30201 ft 480 kts 287°
2026-05-01 13:56 2.34811 102.71608 30559 ft 482 kts 287°
2026-05-01 13:57 2.35755 102.68375 30940 ft 484 kts 287°
2026-05-01 13:57 2.36384 102.66220 31186 ft 486 kts 287°
2026-05-01 13:57 2.37659 102.61854 31662 ft 490 kts 287°
2026-05-01 13:57 2.38605 102.58613 32047 ft 492 kts 287°
2026-05-01 13:58 2.39567 102.55319 32383 ft 495 kts 287°
2026-05-01 13:58 2.40533 102.52014 32738 ft 497 kts 287°
2026-05-01 13:58 2.41505 102.48684 33091 ft 500 kts 287°
2026-05-01 13:58 2.42486 102.45324 33442 ft 502 kts 287°
2026-05-01 13:59 2.43469 102.41960 33797 ft 505 kts 287°
2026-05-01 13:59 2.44444 102.38624 34144 ft 506 kts 287°
2026-05-01 13:59 2.45605 102.35312 34512 ft 506 kts 293°
2026-05-01 13:59 2.47126 102.32121 34831 ft 508 kts 299°
2026-05-01 14:00 2.48966 102.29109 35240 ft 507 kts 305°
2026-05-01 14:00 2.51050 102.26272 35703 ft 506 kts 307°
2026-05-01 14:00 2.53141 102.23448 36149 ft 504 kts 307°
2026-05-01 14:00 2.55219 102.20620 36604 ft 503 kts 307°
2026-05-01 14:01 2.57283 102.17807 37055 ft 502 kts 307°
2026-05-01 14:01 2.59347 102.14998 37504 ft 500 kts 307°
2026-05-01 14:01 2.61408 102.12196 37875 ft 501 kts 307°
2026-05-01 14:01 2.63489 102.09368 37903 ft 507 kts 307°
2026-05-01 14:02 2.67633 102.03737 37892 ft 502 kts 307°
2026-05-01 14:02 2.71788 101.98093 37888 ft 505 kts 307°
2026-05-01 14:03 2.75954 101.92433 37884 ft 505 kts 307°
2026-05-01 14:03 2.80101 101.86797 37887 ft 505 kts 307°
2026-05-01 14:04 2.84263 101.81141 37887 ft 504 kts 307°
2026-05-01 14:04 2.87714 101.76450 37880 ft 504 kts 307°
2026-05-01 14:05 2.92570 101.69847 37874 ft 504 kts 307°
2026-05-01 14:05 2.96700 101.64232 37879 ft 504 kts 307°
2026-05-01 14:06 3.00857 101.58578 37875 ft 504 kts 307°
2026-05-01 14:06 3.04991 101.52956 37877 ft 504 kts 307°
2026-05-01 14:07 3.09149 101.47299 37879 ft 504 kts 307°
2026-05-01 14:08 3.15405 101.38788 37882 ft 505 kts 307°
2026-05-01 14:08 3.19541 101.33160 37882 ft 505 kts 307°
2026-05-01 14:09 3.23712 101.27483 37898 ft 505 kts 307°
2026-05-01 14:09 3.27874 101.21817 37900 ft 505 kts 307°
2026-05-01 14:10 3.32041 101.16145 37894 ft 505 kts 307°
2026-05-01 14:10 3.36192 101.10465 37893 ft 505 kts 306°
2026-05-01 14:11 3.40206 101.04749 37890 ft 505 kts 306°
2026-05-01 14:11 3.46267 100.96119 37884 ft 504 kts 306°
2026-05-01 14:12 3.50313 100.90382 37885 ft 504 kts 306°
2026-05-01 14:12 3.54334 100.84681 37891 ft 504 kts 306°
2026-05-01 14:13 3.57726 100.79871 37891 ft 504 kts 306°
2026-05-01 14:13 3.62474 100.73231 37890 ft 504 kts 307°
2026-05-01 14:14 3.66625 100.67564 37894 ft 504 kts 307°
2026-05-01 14:14 3.70767 100.61888 37893 ft 504 kts 307°
2026-05-01 14:15 3.74880 100.56237 37904 ft 504 kts 307°
2026-05-01 14:15 3.79012 100.50557 37902 ft 504 kts 307°
2026-05-01 14:16 3.82446 100.45835 37904 ft 504 kts 307°
2026-05-01 14:16 3.86575 100.40158 37906 ft 504 kts 307°
2026-05-01 14:17 3.90700 100.34485 37903 ft 504 kts 307°
2026-05-01 14:17 3.94832 100.28801 37902 ft 504 kts 307°
2026-05-01 14:18 3.98956 100.23127 37911 ft 504 kts 307°
2026-05-01 14:18 4.03086 100.17444 37905 ft 504 kts 307°
2026-05-01 14:19 4.07193 100.11791 37910 ft 505 kts 307°
2026-05-01 14:19 4.11333 100.06092 37914 ft 505 kts 307°
2026-05-01 14:20 4.17533 99.97555 37919 ft 505 kts 307°
2026-05-01 14:21 4.21668 99.91858 37921 ft 505 kts 307°
2026-05-01 14:21 4.25785 99.86187 37921 ft 505 kts 307°
2026-05-01 14:22 4.31997 99.77626 37910 ft 506 kts 308°
2026-05-01 14:22 4.36135 99.71923 37912 ft 506 kts 307°
2026-05-01 14:23 4.40281 99.66207 37914 ft 507 kts 307°
2026-05-01 14:23 4.44425 99.60492 37915 ft 507 kts 307°
2026-05-01 14:24 4.48578 99.54765 37915 ft 507 kts 307°
2026-05-01 14:24 4.53029 99.49360 37916 ft 505 kts 313°
2026-05-01 14:25 4.57657 99.44048 37886 ft 506 kts 311°
2026-05-01 14:25 4.62281 99.38722 37895 ft 507 kts 311°
2026-05-01 14:26 4.69242 99.30708 37908 ft 508 kts 311°
2026-05-01 14:27 4.73863 99.25390 37917 ft 509 kts 311°
2026-05-01 14:27 4.78515 99.20033 37920 ft 510 kts 311°
2026-05-01 14:28 4.85499 99.11990 37923 ft 510 kts 311°
2026-05-01 14:28 4.90157 99.06624 37913 ft 510 kts 311°
2026-05-01 14:29 4.94819 99.01251 37906 ft 511 kts 311°
2026-05-01 14:30 5.04159 98.90485 37912 ft 511 kts 311°
2026-05-01 14:31 5.11142 98.82432 37914 ft 512 kts 311°
2026-05-01 14:31 5.15812 98.77046 37914 ft 512 kts 311°
2026-05-01 14:32 5.20489 98.71650 37918 ft 512 kts 311°
2026-05-01 14:32 5.25152 98.66268 37930 ft 510 kts 310°
2026-05-01 14:33 5.29553 98.61186 37881 ft 511 kts 311°
2026-05-01 14:33 5.34225 98.55793 37887 ft 512 kts 311°
2026-05-01 14:34 5.38869 98.50429 37891 ft 513 kts 311°
2026-05-01 14:34 5.43556 98.45015 37903 ft 514 kts 311°
2026-05-01 14:35 5.48248 98.39593 37908 ft 515 kts 311°
2026-05-01 14:35 5.52959 98.34148 37923 ft 515 kts 311°
2026-05-01 14:36 5.57651 98.28723 37935 ft 514 kts 311°
2026-05-01 14:36 5.62333 98.23308 37929 ft 513 kts 311°
2026-05-01 14:37 5.66971 98.17946 37960 ft 510 kts 310°
2026-05-01 14:37 5.71591 98.12598 37908 ft 502 kts 310°
2026-05-01 14:38 5.76165 98.07304 37908 ft 502 kts 310°
2026-05-01 14:38 5.80737 98.02010 37908 ft 502 kts 310°
2026-05-01 14:39 5.85318 97.96705 37908 ft 502 kts 310°
2026-05-01 14:39 5.89938 97.91354 37912 ft 508 kts 310°
2026-05-01 14:40 5.94545 97.86016 37932 ft 509 kts 310°
2026-05-01 14:40 5.99192 97.80631 37936 ft 510 kts 310°
2026-05-01 14:41 6.03852 97.75229 37935 ft 510 kts 310°
2026-05-01 14:41 6.08477 97.69865 37926 ft 510 kts 310°
2026-05-01 14:42 6.13128 97.64470 37920 ft 510 kts 310°
2026-05-01 14:42 6.17248 97.58695 37920 ft 508 kts 298°
2026-05-01 14:43 6.20090 97.52210 37891 ft 507 kts 286°
2026-05-01 14:43 6.22081 97.45413 37896 ft 508 kts 285°
2026-05-01 14:44 6.24102 97.38597 37908 ft 509 kts 285°
2026-05-01 14:44 6.27126 97.28354 37920 ft 510 kts 285°
2026-05-01 14:45 6.30135 97.18131 37921 ft 510 kts 285°
2026-05-01 14:46 6.32151 97.11279 37925 ft 510 kts 285°
2026-05-01 14:46 6.35160 97.01042 37920 ft 510 kts 285°
2026-05-01 14:47 6.37169 96.94204 37922 ft 510 kts 285°
2026-05-01 14:48 6.40180 96.83948 37910 ft 509 kts 285°
2026-05-01 14:48 6.43181 96.73720 37915 ft 508 kts 285°
2026-05-01 14:49 6.47162 96.60135 37911 ft 507 kts 285°
2026-05-01 14:50 6.51580 96.46669 37912 ft 508 kts 294°
2026-05-01 14:51 6.56283 96.37134 37915 ft 510 kts 295°
2026-05-01 14:52 6.60999 96.27508 37921 ft 511 kts 295°
2026-05-01 14:53 6.65710 96.17905 37927 ft 512 kts 295°
2026-05-01 14:53 6.68858 96.11485 37928 ft 512 kts 295°
2026-05-01 14:54 6.72006 96.05061 37936 ft 512 kts 295°
2026-05-01 14:54 6.75150 95.98644 37935 ft 511 kts 295°
2026-05-01 14:55 6.78295 95.92225 37930 ft 511 kts 295°
2026-05-01 14:55 6.81416 95.85853 37919 ft 510 kts 295°
2026-05-01 14:56 6.84553 95.79446 37922 ft 510 kts 295°
2026-05-01 14:56 6.87689 95.73039 37921 ft 510 kts 295°
2026-05-01 14:57 6.90827 95.66623 37939 ft 509 kts 295°
2026-05-01 14:57 6.95491 95.57084 37928 ft 507 kts 295°
2026-05-01 14:58 6.98602 95.50719 37921 ft 507 kts 295°
2026-05-01 14:58 7.01714 95.44348 37918 ft 506 kts 295°
2026-05-01 14:59 7.04826 95.37975 37917 ft 506 kts 295°
2026-05-01 14:59 7.07928 95.31619 37925 ft 506 kts 295°
2026-05-01 15:00 7.12559 95.22125 37926 ft 505 kts 295°
2026-05-01 15:01 7.15655 95.15775 37926 ft 505 kts 295°
2026-05-01 15:01 7.18759 95.09409 37924 ft 505 kts 295°
2026-05-01 15:02 7.21857 95.03051 37922 ft 505 kts 294°
2026-05-01 15:02 7.24430 94.97769 37923 ft 505 kts 294°
2026-05-01 15:03 7.28031 94.90373 37930 ft 505 kts 294°
2026-05-01 15:03 7.30603 94.85088 37927 ft 505 kts 294°
2026-05-01 15:04 7.33696 94.78730 37928 ft 504 kts 294°
2026-05-01 15:04 7.36785 94.72376 37926 ft 504 kts 294°
2026-05-01 15:05 7.39875 94.66017 37922 ft 504 kts 294°
2026-05-01 15:05 7.42940 94.59708 37923 ft 504 kts 294°
2026-05-01 15:06 7.46017 94.53371 37963 ft 501 kts 294°
2026-05-01 15:06 7.49055 94.47116 37927 ft 493 kts 294°
2026-05-01 15:07 7.52073 94.40892 37922 ft 494 kts 294°
2026-05-01 15:07 7.54937 94.34535 37926 ft 506 kts 292°
2026-05-01 15:08 7.57826 94.27964 37929 ft 512 kts 292°
2026-05-01 15:08 7.60751 94.21385 37927 ft 520 kts 292°
2026-05-01 15:09 7.63710 94.14753 37926 ft 516 kts 293°
2026-05-01 15:09 7.66656 94.08149 37925 ft 516 kts 293°
2026-05-01 15:10 7.69603 94.01537 37921 ft 516 kts 293°
2026-05-01 15:10 7.74013 93.91635 37925 ft 516 kts 293°
2026-05-01 15:11 7.78406 93.81763 37924 ft 516 kts 293°
2026-05-01 15:12 7.81323 93.75206 37925 ft 509 kts 293°
2026-05-01 15:12 7.85683 93.65396 37925 ft 511 kts 293°
2026-05-01 15:14 7.92951 93.49032 37931 ft 511 kts 293°
2026-05-01 15:14 7.97342 93.39217 37927 ft 511 kts 293°
2026-05-01 15:15 8.03191 93.26140 37924 ft 511 kts 293°
2026-05-01 15:16 8.09018 93.13094 37928 ft 511 kts 293°
2026-05-01 15:18 8.16333 92.96695 37925 ft 512 kts 293°
2026-05-01 15:19 8.22164 92.83610 37929 ft 513 kts 293°
2026-05-01 15:19 8.26551 92.73755 37927 ft 513 kts 293°
2026-05-01 15:20 8.30925 92.63921 37927 ft 513 kts 293°
2026-05-01 15:21 8.33853 92.57336 37929 ft 513 kts 294°
2026-05-01 15:21 8.36767 92.50779 37928 ft 511 kts 293°
2026-05-01 15:22 8.41134 92.40943 37925 ft 511 kts 293°
2026-05-01 15:22 8.44043 92.34387 37924 ft 511 kts 293°
2026-05-01 15:23 8.46932 92.27874 37924 ft 511 kts 293°
2026-05-01 15:23 8.49835 92.21325 37926 ft 511 kts 293°
2026-05-01 15:24 8.52743 92.14760 37925 ft 511 kts 293°
2026-05-01 15:24 8.55644 92.08208 37925 ft 511 kts 293°
2026-05-01 15:25 8.58545 92.01655 37928 ft 510 kts 293°
2026-05-01 15:25 8.61488 91.95170 37928 ft 511 kts 295°
2026-05-01 15:26 8.64582 91.88685 37925 ft 512 kts 295°
2026-05-01 15:26 8.67664 91.82188 37925 ft 512 kts 295°
2026-05-01 15:27 8.70708 91.75732 37927 ft 512 kts 295°
2026-05-01 15:28 8.75293 91.65993 37927 ft 510 kts 295°
2026-05-01 15:28 8.78339 91.59517 37925 ft 510 kts 295°
2026-05-01 15:29 8.82914 91.49786 37927 ft 511 kts 294°
2026-05-01 15:30 8.89002 91.36824 37928 ft 511 kts 294°
2026-05-01 15:31 8.98146 91.17330 37925 ft 511 kts 294°
2026-05-01 15:32 9.04232 91.04338 37927 ft 512 kts 294°
2026-05-01 15:34 9.13353 90.84841 37927 ft 511 kts 294°